Huachuca City, AZ (85616)

5:48 PM MST on September 19, 2014 (GMT -0700)
Lower Huachuca City | Change Station
CLOSE
Current Station
Personal Weather Station
Location: Huachuca City, AZ
Elevation: 4251 ft
Nearby Weather Stations
Active Advisory: Flood Warning Active Notice: Record Report

Elev 4251 ft 31.64 °N, 110.34 °W | Updated 4 seconds ago

Partly Cloudy
Partly Cloudy
77.0 °F
Feels Like 79 °F
N
2.7
Wind Variable Wind from West
Gusts 4.7 mph

Today
High -- | Low -- °F
--% Chance of Precip.
Yesterday
High -- | Low -- °F
Precip. -- in
6:07 AM 6:21 PM
Waning Crescent, 16% visible
Pressure 29.85 in
Visibility 10.0 miles
Clouds Few 4700 ft
Scattered Clouds 10000 ft
Mostly Cloudy 25000 ft
Heat Index 79 °F
Dew Point 65 °F
Humidity 66%
Rainfall 0.00 in
Snow Depth 1 in , 0 in , 0 in
UV 1 out of 12
Pollen 6.20 out of 12
Air Quality Not available.
Flu Activity Not available.
METAR KFHU 192355Z 28007KT 10SM FEW047 SCT100 BKN250 24/17 A3001 RMK LTG DSNT S SLP107 56003

More Conditions Fewer Conditions

Pressure 29.85 in
Visibility 10.0 miles
Clouds Few 4700 ft
Scattered Clouds 10000 ft
Mostly Cloudy 25000 ft
Heat Index 79 °F
Dew Point 65 °F
Humidity 66%
Rainfall 0.00 in
Snow Depth 1 in , 0 in , 0 in
UV 1 out of 12
Pollen 6.20 out of 12
Air Quality Not available.
Flu Activity Not available.
METAR KFHU 192355Z 28007KT 10SM FEW047 SCT100 BKN250 24/17 A3001 RMK LTG DSNT S SLP107 56003

More Conditions Fewer Conditions

10-Day Weather Forecast

Almanac

Astronomy

Sep. 19, 2014 Rise Set
Actual Time 6:07 AM MST 6:21 PM MST
Civil Twilight 5:43 AM MST 6:46 PM MST
Nautical Twilight 5:14 AM MST 7:14 PM MST
Astronomical Twilight 4:46 AM MST 7:43 PM MST
Moon 2:08 AM MST (9/19) 3:41 PM MST (9/19)
Length of Visible Light 13h 02m
Length of Day
12h 14m
Tomorrow will be 1m 55s shorter.
Waning Crescent, 16% of the Moon is Illuminated
Today
Waning Crescent
Sep 24
New
Oct 1
First Quarter
Oct 8
Full
Oct 15
Last Quarter

Today's Extremes

State Highs State Lows

Community

WunderPhotos

Upload Photos

1,754,744 photos uploaded!

WunderBlogs® & News

Nearby

Snow Depth

Station Depth Elevation
Workman Creek 1 in 6900 ft
White Horse Lake 0 in 7180 ft
Snowslide Canyon 0 in 9730 ft
Beaver Head 1 in 7990 ft

Earthquake Activity

City Distance Mag. Time & Date
No recent earthquake activity has been reported nearby.
Minimum magnitude displayed is 2.5.

Coastal Water Temperatures

Place Temperature
No Stations Reporting

Nearby Weather Stations